Estación de San Javier

Ultimos registro cada 15 minutos 85
Estación Fecha / Hora Temperatura Humedad Lluvia Velocidad Dirección Radiación Presion
85 San Javier 04-05-2026 21:15 12,8 92 0 0 306 0 1015
84 San Javier 04-05-2026 21:00 13 92 0 0 306 0 1015,1
83 San Javier 04-05-2026 20:45 13,3 91 0 0 306 0 1015
82 San Javier 04-05-2026 20:30 13,4 92 0 0 306 0 1014,8
81 San Javier 04-05-2026 20:15 13,6 91 0 0 306 0 1014,6
80 San Javier 04-05-2026 20:00 13,7 91 0 0 306 0 1014,7
79 San Javier 04-05-2026 19:45 13,9 90 0 0 306 0 1014,6
78 San Javier 04-05-2026 19:30 14,2 90 0 0 306 0 1014,7
77 San Javier 04-05-2026 19:15 14,5 89 0 0 306 0 1014,6
76 San Javier 04-05-2026 19:00 14,8 89 0 0 306 0 1014,7
75 San Javier 04-05-2026 18:45 15,2 88 0 0 306 0 1014,6
74 San Javier 04-05-2026 18:30 15,5 87 0 0 306 0 1014,5
73 San Javier 04-05-2026 18:15 15,8 87 0 0 306 0 1014
72 San Javier 04-05-2026 18:00 16,1 86 0 0 306 7 1014,5
71 San Javier 04-05-2026 17:45 16,4 85 0 0,4 306 9 1014,5
70 San Javier 04-05-2026 17:30 16,8 84 0 0,4 5 26 1014,9
69 San Javier 04-05-2026 17:15 17,1 83 0 0 338 42 1015,1
68 San Javier 04-05-2026 17:00 17,5 82 0 0,4 9 49 1015,1
67 San Javier 04-05-2026 16:45 17,7 82 0 0 350 95 1015,2
66 San Javier 04-05-2026 16:30 17,8 82 0 0 349 100 1015,3
65 San Javier 04-05-2026 16:15 17,6 81 0 0 288 125 1015,3
64 San Javier 04-05-2026 16:00 17,5 81 0 0 332 130 1015,3
63 San Javier 04-05-2026 15:45 17,6 81 0 0 342 128 1015,2
62 San Javier 04-05-2026 15:30 17,4 80 0 0 270 148 1015,4
61 San Javier 04-05-2026 15:15 17,6 81 0 0,4 324 172 1015,5
60 San Javier 04-05-2026 15:00 17,6 81 0 0 80 248 1015,7
59 San Javier 04-05-2026 14:45 17,3 80 0 0 184 220 1016
58 San Javier 04-05-2026 14:30 16,9 82 0 0 298 267 1016,2
57 San Javier 04-05-2026 14:15 16,6 82 0 0 5 251 1016,6
56 San Javier 04-05-2026 14:00 16,4 83 0 0 101 227 1016,8
55 San Javier 04-05-2026 13:45 16,2 83 0 0,4 28 229 1017,2
54 San Javier 04-05-2026 13:30 16 82 0 1,3 123 251 1017,3
53 San Javier 04-05-2026 13:00 15,7 82 0 0 111 192 1017,5
52 San Javier 04-05-2026 12:45 15,4 82 0 0 111 207 1017,4
51 San Javier 04-05-2026 12:30 15,1 84 0 0 36 206 1017,7
50 San Javier 04-05-2026 12:15 14,7 85 0 0 36 153 1017,9
49 San Javier 04-05-2026 12:00 14,4 85 0 0 306 127 1017,9
48 San Javier 04-05-2026 11:45 14,2 87 0 0 306 139 1017,8
47 San Javier 04-05-2026 11:30 13,9 88 0 0 313 174 1018
46 San Javier 04-05-2026 11:15 13,6 90 0 0 355 132 1017,8
45 San Javier 04-05-2026 11:00 13,3 92 0 0,4 340 84 1017,9
44 San Javier 04-05-2026 10:45 13,1 93 0 0,4 313 67 1018
43 San Javier 04-05-2026 10:30 12,9 93 0 0,4 325 62 1017,8
42 San Javier 04-05-2026 10:15 12,6 94 0 0 265 54 1017,7
41 San Javier 04-05-2026 10:00 12,3 93 0 0 265 49 1017,6
40 San Javier 04-05-2026 09:45 12,2 94 0 0 265 70 1017,2
39 San Javier 04-05-2026 09:30 12,1 95 0 0 265 49 1017,4
38 San Javier 04-05-2026 09:15 12,2 96 0 0 251 83 1017,4
37 San Javier 04-05-2026 09:00 12,1 96 0 0 306 97 1017,4
36 San Javier 04-05-2026 08:45 11,5 96 0 0 306 91 1017,7
35 San Javier 04-05-2026 08:30 10,8 96 0 0 306 74 1017,6
34 San Javier 04-05-2026 08:15 10,3 95 0 0 306 40 1017,3
33 San Javier 04-05-2026 08:00 10 95 0 0 306 26 1017
32 San Javier 04-05-2026 07:45 9,7 95 0 0 306 16 1016,9
31 San Javier 04-05-2026 07:30 9,4 94 0 0 306 0 1017,1
30 San Javier 04-05-2026 07:15 9,3 94 0 0 306 0 1016,9
29 San Javier 04-05-2026 07:00 9,5 94 0 0 306 0 1016,7
28 San Javier 04-05-2026 06:45 9,8 94 0 0 306 0 1016,8
27 San Javier 04-05-2026 06:30 9,9 94 0 0 306 0 1016,9
26 San Javier 04-05-2026 06:15 10,1 94 0 0 306 0 1016,9
25 San Javier 04-05-2026 06:00 10,4 93 0 0 306 0 1016,7
24 San Javier 04-05-2026 05:45 10,7 94 0 0 306 0 1016,6
23 San Javier 04-05-2026 05:30 10,8 94 0 0 306 0 1016,4
22 San Javier 04-05-2026 05:15 10,8 94 0 0 306 0 1016,3
21 San Javier 04-05-2026 05:00 10,7 94 0 0 306 0 1016,3
20 San Javier 04-05-2026 04:45 10,9 93 0 0 306 0 1016,4
19 San Javier 04-05-2026 04:30 11,2 94 0 0 306 0 1016,3
18 San Javier 04-05-2026 04:15 11,3 94 0 0 306 0 1016,3
17 San Javier 04-05-2026 04:00 11,3 94 0 0 306 0 1016,6
16 San Javier 04-05-2026 03:45 11,3 94 0 0 306 0 1016,6
15 San Javier 04-05-2026 03:30 11,4 94 0 0 306 0 1016,7
14 San Javier 04-05-2026 03:15 11,6 94 0 0 306 0 1016,9
13 San Javier 04-05-2026 03:00 11,7 94 0 0 306 0 1016,9
12 San Javier 04-05-2026 02:45 11,7 94 0 0 304 0 1017
11 San Javier 04-05-2026 02:30 11,7 94 0 0,4 307 0 1017,2
10 San Javier 04-05-2026 02:15 11,7 94 0 0 309 0 1017,3
9 San Javier 04-05-2026 02:00 11,7 93 0 0 29 0 1017,7
8 San Javier 04-05-2026 01:45 11,8 93 0 0 29 0 1017,9
7 San Javier 04-05-2026 01:30 11,9 94 0 0 29 0 1017,9
6 San Javier 04-05-2026 01:15 11,8 93 0 0 29 0 1018,2
5 San Javier 04-05-2026 01:00 11,9 93 0 0 29 0 1018,1
4 San Javier 04-05-2026 00:45 12 92 0 0 29 0 1018,1
3 San Javier 04-05-2026 00:30 12,2 92 0 0 29 0 1017,7
2 San Javier 04-05-2026 00:15 12,4 92 0 0 29 0 1017,7
1 San Javier 04-05-2026 00:00 12,6 93 0 0 29 0 1018,4